Hourly Weather Gandia

Today, 8 July, Wednesday

Time Temperature Precipitation Wind Pressure Humidity
00:00 +25°C° 0 mm 1 mps 759 mmHg 85%
01:00 +24°C° 0 mm 1 mps 759 mmHg 87%
02:00 +24°C° 0 mm 1 mps 758 mmHg 88%
03:00 +24°C° 0 mm 1 mps 758 mmHg 89%
04:00 +24°C° 0 mm 1 mps 758 mmHg 85%
05:00 +25°C° 0 mm 1 mps 758 mmHg 82%
06:00 +25°C° 0 mm 1 mps 758 mmHg 79%
07:00 +27°C° 0 mm 1 mps 759 mmHg 70%
08:00 +29°C° 0 mm 1 mps 759 mmHg 62%
09:00 +30°C° 0 mm 2 mps 759 mmHg 54%
10:00 +33°C° 0 mm 3 mps 759 mmHg 49%
11:00 +34°C° 0 mm 3 mps 759 mmHg 45%
12:00 +36°C° 0 mm 4 mps 759 mmHg 40%
13:00 +36°C° 0 mm 5 mps 759 mmHg 41%
14:00 +35°C° 0 mm 5 mps 758 mmHg 41%
15:00 +35°C° 0 mm 6 mps 758 mmHg 42%
16:00 +34°C° 0.2 mm 5 mps 758 mmHg 46%
17:00 +33°C° 0.2 mm 3 mps 759 mmHg 50%
18:00 +31°C° 0.2 mm 2 mps 759 mmHg 55%
19:00 +29°C° 0 mm 3 mps 759 mmHg 62%
20:00 +28°C° 0 mm 3 mps 759 mmHg 70%
21:00 +26°C° 0 mm 3 mps 759 mmHg 78%
22:00 +26°C° 0 mm 3 mps 759 mmHg 77%
23:00 +26°C° 0 mm 2 mps 758 mmHg 76%

Tomorrow, 9 July, Thursday

Time Temperature Precipitation Wind Pressure Humidity
00:00 +26°C° 0 mm 1 mps 758 mmHg 75%
01:00 +26°C° 0 mm 2 mps 758 mmHg 74%
02:00 +26°C° 0 mm 3 mps 758 mmHg 74%
03:00 +25°C° 0 mm 4 mps 758 mmHg 73%
04:00 +26°C° 0 mm 3 mps 758 mmHg 72%
05:00 +26°C° 0 mm 2 mps 758 mmHg 71%
06:00 +26°C° 0 mm 1 mps 758 mmHg 70%
07:00 +27°C° 0 mm 2 mps 758 mmHg 65%
08:00 +29°C° 0 mm 3 mps 758 mmHg 60%
09:00 +30°C° 0 mm 3 mps 758 mmHg 55%
10:00 +32°C° 0 mm 4 mps 758 mmHg 50%
11:00 +33°C° 0 mm 4 mps 758 mmHg 45%
12:00 +35°C° 0 mm 4 mps 758 mmHg 40%
13:00 +35°C° 0 mm 4 mps 758 mmHg 40%
14:00 +35°C° 0 mm 4 mps 757 mmHg 40%
15:00 +35°C° 0 mm 4 mps 757 mmHg 40%
16:00 +34°C° 0 mm 4 mps 757 mmHg 43%
17:00 +33°C° 0 mm 3 mps 757 mmHg 46%
18:00 +31°C° 0 mm 3 mps 757 mmHg 49%
19:00 +29°C° 0 mm 3 mps 757 mmHg 57%
20:00 +28°C° 0 mm 2 mps 758 mmHg 65%
21:00 +26°C° 0 mm 2 mps 758 mmHg 73%
22:00 +25°C° 0 mm 2 mps 758 mmHg 75%
23:00 +25°C° 0 mm 2 mps 758 mmHg 78%

Day after tomorrow, 10 July, Friday

Time Temperature Precipitation Wind Pressure Humidity
00:00 +25°C° 0 mm 2 mps 758 mmHg 80%
01:00 +24°C° 0 mm 2 mps 758 mmHg 82%
02:00 +24°C° 0 mm 2 mps 757 mmHg 83%
03:00 +24°C° 0 mm 2 mps 757 mmHg 84%
04:00 +24°C° 0 mm 2 mps 757 mmHg 81%
05:00 +25°C° 0 mm 2 mps 757 mmHg 78%
06:00 +25°C° 0 mm 2 mps 757 mmHg 74%
07:00 +27°C° 0 mm 2 mps 757 mmHg 65%
08:00 +29°C° 0 mm 2 mps 757 mmHg 56%
09:00 +31°C° 0 mm 2 mps 757 mmHg 47%
10:00 +34°C° 0 mm 3 mps 757 mmHg 43%
11:00 +35°C° 0 mm 3 mps 757 mmHg 40%
12:00 +36°C° 0 mm 4 mps 757 mmHg 36%
13:00 +36°C° 0 mm 4 mps 757 mmHg 37%
14:00 +36°C° 0 mm 4 mps 756 mmHg 39%
15:00 +36°C° 0 mm 4 mps 756 mmHg 40%
16:00 +35°C° 0 mm 4 mps 756 mmHg 42%
17:00 +34°C° 0 mm 3 mps 756 mmHg 44%
18:00 +33°C° 0 mm 3 mps 756 mmHg 46%
19:00 +30°C° 0 mm 2 mps 756 mmHg 55%
20:00 +29°C° 0 mm 1 mps 757 mmHg 63%
21:00 +27°C° 0 mm 1 mps 757 mmHg 71%
22:00 +26°C° 0 mm 1 mps 757 mmHg 72%
23:00 +26°C° 0 mm 1 mps 757 mmHg 73%

11 July, Saturday

Time Temperature Precipitation Wind Pressure Humidity
00:00 +25°C° 0 mm 1 mps 757 mmHg 74%
01:00 +25°C° 0 mm 2 mps 757 mmHg 75%
02:00 +25°C° 0 mm 2 mps 757 mmHg 75%
03:00 +24°C° 0 mm 3 mps 757 mmHg 76%
04:00 +25°C° 0 mm 3 mps 757 mmHg 76%
05:00 +25°C° 0 mm 4 mps 757 mmHg 76%
06:00 +25°C° 0 mm 4 mps 758 mmHg 76%
07:00 +27°C° 0 mm 5 mps 758 mmHg 72%
08:00 +28°C° 0 mm 5 mps 758 mmHg 67%
09:00 +29°C° 0 mm 6 mps 759 mmHg 62%
10:00 +30°C° 0 mm 5 mps 759 mmHg 58%
11:00 +32°C° 0 mm 5 mps 759 mmHg 54%
12:00 +33°C° 0 mm 4 mps 759 mmHg 49%
13:00 +34°C° 0 mm 4 mps 759 mmHg 48%
14:00 +34°C° 0 mm 4 mps 759 mmHg 47%
15:00 +34°C° 0 mm 4 mps 758 mmHg 45%
16:00 +33°C° 0 mm 4 mps 758 mmHg 49%
17:00 +31°C° 0 mm 3 mps 758 mmHg 53%
18:00 +30°C° 0 mm 3 mps 758 mmHg 57%
19:00 +28°C° 0 mm 3 mps 759 mmHg 66%
20:00 +27°C° 0 mm 2 mps 759 mmHg 75%
21:00 +25°C° 0 mm 2 mps 759 mmHg 84%
22:00 +25°C° 0 mm 2 mps 759 mmHg 87%
23:00 +24°C° 0 mm 1 mps 759 mmHg 90%

12 July, Sunday

Time Temperature Precipitation Wind Pressure Humidity
00:00 +24°C° 0 mm 1 mps 759 mmHg 92%
01:00 +24°C° 0 mm 1 mps 758 mmHg 92%
02:00 +24°C° 0 mm 1 mps 758 mmHg 91%
03:00 +24°C° 0 mm 1 mps 758 mmHg 91%
04:00 +24°C° 0 mm 1 mps 758 mmHg 89%
05:00 +24°C° 0 mm 2 mps 759 mmHg 88%
06:00 +25°C° 0 mm 2 mps 759 mmHg 86%
07:00 +26°C° 0 mm 3 mps 759 mmHg 77%
08:00 +28°C° 0 mm 3 mps 759 mmHg 67%
09:00 +30°C° 0 mm 3 mps 759 mmHg 57%
10:00 +31°C° 0 mm 3 mps 759 mmHg 53%
11:00 +33°C° 0 mm 4 mps 759 mmHg 48%
12:00 +34°C° 0 mm 4 mps 759 mmHg 44%
13:00 +34°C° 0 mm 4 mps 758 mmHg 43%
14:00 +34°C° 0 mm 3 mps 758 mmHg 43%
15:00 +34°C° 0 mm 3 mps 758 mmHg 42%
16:00 +33°C° 0 mm 3 mps 758 mmHg 43%
17:00 +33°C° 0 mm 3 mps 758 mmHg 44%
18:00 +31°C° 0 mm 3 mps 757 mmHg 45%
19:00 +29°C° 0 mm 3 mps 758 mmHg 54%
20:00 +27°C° 0 mm 3 mps 759 mmHg 62%
21:00 +25°C° 0 mm 2 mps 760 mmHg 71%
22:00 +25°C° 0 mm 2 mps 759 mmHg 76%
23:00 +25°C° 0 mm 2 mps 759 mmHg 80%

13 July, Monday

Time Temperature Precipitation Wind Pressure Humidity
00:00 +24°C° 0 mm 2 mps 759 mmHg 85%
01:00 +24°C° 0 mm 2 mps 759 mmHg 87%
02:00 +24°C° 0 mm 2 mps 759 mmHg 88%
03:00 +23°C° 0 mm 2 mps 758 mmHg 90%
04:00 +24°C° 0 mm 2 mps 759 mmHg 87%
05:00 +24°C° 0 mm 2 mps 759 mmHg 84%
06:00 +25°C° 0 mm 2 mps 759 mmHg 81%
07:00 +27°C° 0 mm 3 mps 759 mmHg 72%
08:00 +28°C° 0 mm 3 mps 760 mmHg 63%
09:00 +30°C° 0 mm 4 mps 760 mmHg 54%
10:00 +32°C° 0 mm 4 mps 760 mmHg 49%
11:00 +33°C° 0 mm 4 mps 760 mmHg 45%
12:00 +34°C° 0 mm 4 mps 760 mmHg 40%
13:00 +34°C° 0 mm 4 mps 759 mmHg 40%
14:00 +34°C° 0 mm 4 mps 759 mmHg 40%
15:00 +34°C° 0 mm 4 mps 759 mmHg 40%
16:00 +33°C° 0 mm 3 mps 759 mmHg 44%
17:00 +31°C° 0 mm 3 mps 759 mmHg 47%
18:00 +30°C° 0 mm 3 mps 759 mmHg 51%
19:00 +29°C° 0 mm 2 mps 759 mmHg 58%
20:00 +27°C° 0 mm 2 mps 760 mmHg 65%
21:00 +26°C° 0 mm 1 mps 760 mmHg 72%
22:00 +25°C° 0 mm 1 mps 760 mmHg 74%
23:00 +25°C° 0 mm 1 mps 760 mmHg 75%
Show more